Atlantic City International Airport
KACY : now visible

Airfield :











YOU CAN JOIN US ON...

 
LOGIN :

Register | Disclaimer

   EN    FR    IT 

 









Legend :    VFR   Marginal VFR   IFR   Intensive IFR   Very Intensive IFR
Visi :
Ceiling :
>= 8 km
>= 3000ft
5 to 8 km
1000 to 3000 ft
1500m to 5 km
500 to 1000 ft
800 to 1500m
200 to 500 ft
< 800m
< 200 ft
Symbols :   Thunderstorms  Fog  Heavy snow  Heavy precipitations  Wind > 20 kt






- Airport Elevation : 75 ft
- IATA code : ACY


KACY - Atlantic City International

CURRENT METAR :
  • 071554Z 11008KT 10SM CLR 17/04 A2989 RMK AO2 SLP120 T01720039

EXPIRED METARs :
  • 071454Z 08007KT 10SM CLR 16/02 A2990 RMK AO2 SLP126 T01610022 58002
  • 071354Z 10009KT 10SM CLR 16/02 A2990 RMK AO2 SLP126 T01610022

TAF KACY
Valid from the 07 at 12:00 until the 08 at 12:00 UTC


071120Z 0712/0812 10006KT P6SM SCT070 BKN150
FM071800 14008KT P6SM SCT050 BKN070
FM080300 08003KT P6SM OVC040
KZDC FIR / North America



MET'MAP, your aeronautical weather chart ! - Copyright ORBIFLY December 2007 - Disclaimer

ORBIFLY MET'MAP TEAM :

Programming & Development : Alexandra Zaïnal
Concept & original design : Baudouin d'Aumeries
Assistance for programming : Marc-Olivier Méhu
Technical & hardware support : Manuel Goepfert

Contact : metmap@orbifly.com




SOURCES & CREDITS :

   NOAA       Earth
Advisory